GFSCGP_700_spd_135.txt.gz
Wind_Speed
8 8 10 9 4 2 3 3 7 9 1 11 19 16 12 13 16 14 5 12 10 8 3 4 4 3 2 1 2 3 6 5 7 9 10 9 7 8 9 10 11 11 12 13
8 9 9 5 1 2 4 4 1 6 8 13 18 16 16 15 12 8 4 4 10 9 5 4 3 2 1 2 3 1 6 8 8 8 8 10 10 11 13 14 14 14 14 16
5 8 6 1 2 2 0 6 4 4 2 10 17 21 20 16 14 12 7 3 7 5 6 3 2 2 4 3 3 1 1 4 7 11 13 13 12 13 13 14 13 13 14 16
5 7 6 2 1 2 6 1 2 2 5 5 8 11 23 22 20 16 13 13 8 9 8 6 1 1 1 2 3 3 3 5 8 12 16 18 18 14 15 20 20 21 20 20
6 8 7 7 4 3 5 7 6 7 6 7 8 5 28 27 23 22 17 17 12 8 7 2 2 0 2 1 2 3 5 5 8 11 17 18 16 20 21 23 23 22 23 23
10 6 7 7 4 1 4 3 4 5 5 2 2 7 25 32 31 26 22 18 12 8 8 6 6 6 6 6 4 7 9 13 14 13 15 18 20 22 23 24 24 26 26 25
10 9 10 10 9 7 5 6 4 4 4 5 9 6 4 21 27 28 23 19 15 12 13 9 8 8 7 4 3 4 10 16 18 20 20 20 22 22 24 25 27 29 30 28
6 3 11 19 17 9 7 2 0 3 2 7 6 4 4 11 28 29 20 15 13 11 12 8 9 11 4 3 5 6 12 15 19 24 19 23 26 27 29 31 32 32 32 32
7 2 6 10 13 8 5 2 3 3 3 2 3 1 1 3 32 27 20 17 15 13 11 11 11 8 7 8 8 10 11 15 21 23 27 28 25 27 32 35 38 39 39 40
9 9 9 12 10 9 3 0 1 3 2 3 1 4 3 13 24 27 22 18 16 13 13 14 11 11 11 11 11 13 14 20 24 26 29 31 31 31 30 34 37 39 42 44
20 14 12 15 12 11 6 7 5 3 1 5 1 2 8 20 21 16 17 18 18 17 17 13 13 13 14 15 17 17 17 21 27 33 34 34 34 36 37 37 38 39 42 44
27 17 17 15 13 8 6 6 11 10 6 6 3 4 4 18 19 19 18 20 21 17 14 15 15 15 17 19 20 20 24 31 36 35 35 31 35 38 38 39 40 38 42 43
28 18 15 10 9 9 6 5 6 9 8 11 6 5 10 20 13 19 20 17 16 18 19 19 19 19 19 20 22 25 31 33 33 34 36 36 37 37 41 43 44 42 42 43
31 21 23 20 12 11 10 8 5 4 6 10 13 7 7 11 14 16 15 17 20 21 22 22 23 23 23 25 28 28 33 34 40 42 45 43 42 39 40 41 43 43 39 38
19 14 13 8 6 7 9 11 9 10 8 6 6 6 5 14 16 18 18 21 23 25 26 25 23 24 25 23 26 33 33 37 40 45 50 49 49 42 41 40 40 39 38 36
17 12 10 9 10 13 14 13 11 8 9 13 13 14 14 14 13 19 24 24 23 22 22 23 22 22 25 28 26 29 37 45 49 51 49 44 42 41 41 38 36 36 36 37
18 17 16 10 12 9 6 11 11 13 14 17 18 21 20 18 16 13 18 20 21 21 21 23 25 27 24 23 30 38 47 47 43 42 45 39 40 39 38 35 35 34 34 36
18 16 14 9 10 2 5 9 10 16 8 8 8 8 7 8 11 12 16 18 20 22 23 23 24 25 27 31 37 43 43 46 45 48 49 42 39 39 36 33 33 32 32 34
14 16 9 6 11 5 8 12 15 12 13 13 12 8 9 12 14 15 17 20 22 23 24 26 30 33 37 41 46 48 48 50 47 45 47 43 38 38 34 29 28 29 32 33
12 11 11 10 6 8 14 13 12 10 15 15 16 16 16 17 17 17 19 21 24 28 32 35 35 39 42 38 47 50 49 48 41 44 40 39 35 33 31 28 30 32 31 32
11 9 14 15 13 9 11 10 13 15 17 10 11 15 14 14 14 17 23 30 33 34 36 37 42 42 44 47 50 49 45 41 43 43 38 38 33 30 30 30 29 30 24 24
10 8 10 12 13 11 14 15 19 18 17 17 14 16 18 20 23 26 28 31 34 36 38 42 47 49 49 49 48 43 40 44 40 38 35 33 32 27 28 30 26 25 23 26
10 12 9 9 6 7 10 15 13 14 14 14 14 14 16 18 22 26 29 31 35 39 42 42 44 47 47 48 41 39 37 35 37 37 33 30 32 26 29 29 28 22 21 19
12 11 8 7 8 7 7 6 8 10 12 14 16 15 15 20 25 29 32 33 35 35 38 37 42 39 45 41 37 38 38 39 41 35 31 29 29 27 28 26 23 22 17 9
11 8 9 9 7 5 4 6 7 8 12 14 16 18 20 24 31 35 34 35 34 34 40 43 42 40 34 33 35 34 36 37 34 31 28 28 27 27 24 23 22 20 16 4
12 10 9 10 9 8 9 11 12 12 12 16 21 24 30 32 32 30 31 33 35 37 35 32 32 34 25 27 27 30 33 34 28 25 26 27 30 30 27 22 19 12 8 5

GFSCGP_700_spd_138.txt.gz
Wind_Speed
13 12 11 8 4 3 3 1 1 8 6 13 13 17 13 10 13 10 12 12 11 7 6 7 8 9 9 6 5 7 5 4 2 2 5 6 7 7 8 9 12 13 14 13
13 15 11 8 3 1 2 2 5 8 8 8 15 19 15 13 14 7 7 8 13 11 7 6 6 5 6 5 3 4 8 6 3 3 5 7 8 9 11 11 12 15 16 17
13 12 10 5 1 3 3 4 5 8 7 12 17 17 17 16 18 15 14 11 11 10 7 4 7 3 4 3 3 4 3 4 3 4 8 11 12 13 12 12 13 16 17 18
11 12 10 4 4 4 7 4 4 1 4 6 16 8 19 18 19 19 18 13 11 12 11 7 4 5 5 4 3 2 2 1 5 8 13 15 15 17 18 17 18 19 19 21
10 12 11 8 6 3 3 6 5 4 5 7 13 7 20 24 23 23 19 14 13 10 10 6 5 8 11 8 7 7 14 15 13 13 14 15 16 18 18 21 23 24 25 24
12 10 10 9 7 2 2 2 5 7 8 3 2 8 10 24 18 24 21 18 15 13 13 11 8 10 14 13 11 13 13 14 16 18 14 17 19 22 21 22 26 27 27 26
15 11 11 10 11 5 5 2 1 2 2 5 4 4 7 10 19 21 22 20 18 15 13 12 9 11 7 4 2 1 0 2 4 7 13 13 18 24 28 28 28 28 29 31
14 9 12 15 16 8 6 1 3 2 2 5 4 3 4 6 20 21 22 20 16 13 13 11 9 11 9 5 8 8 7 9 8 11 14 17 22 20 26 34 37 37 36 37
13 9 12 15 17 16 8 6 2 2 2 4 5 5 6 5 8 23 26 21 16 14 12 9 8 10 8 9 9 9 10 12 14 14 19 25 29 32 27 26 31 39 43 43
9 9 10 13 14 12 7 7 3 4 2 3 5 6 8 5 5 16 27 21 16 14 13 12 9 7 10 11 11 12 12 12 13 18 23 28 32 34 34 31 31 33 36 40
14 13 13 14 11 14 11 11 5 7 4 6 1 4 4 7 7 8 21 19 17 16 15 12 10 13 14 13 13 13 14 14 17 21 28 31 31 34 34 35 37 38 38 39
25 11 17 18 15 14 13 11 12 10 6 7 4 9 8 7 8 11 11 13 19 20 19 15 17 18 17 17 15 17 16 18 22 26 30 35 37 36 37 40 40 41 43 41
22 19 12 7 10 13 12 15 12 12 11 13 8 9 13 8 12 16 20 20 23 24 21 20 21 21 20 20 18 18 21 23 29 33 35 40 43 46 46 46 46 44 42 43
26 25 23 26 29 23 17 14 11 12 11 11 15 13 10 12 16 19 19 25 25 22 21 25 25 22 21 20 21 23 25 28 31 36 38 44 46 46 44 44 42 42 41 43
26 20 22 17 13 17 17 13 11 11 12 11 10 7 8 12 12 13 15 17 19 21 24 26 25 23 22 23 24 26 29 33 36 37 41 42 45 43 43 43 42 40 39 40
23 17 17 17 14 11 10 10 13 13 14 13 12 15 13 11 11 15 17 19 22 25 27 26 23 23 24 26 27 30 33 31 36 43 46 50 49 47 47 46 44 43 39 37
23 18 19 12 12 10 9 14 16 14 13 12 18 20 22 24 22 16 17 20 27 25 22 22 22 25 26 28 32 36 37 43 46 47 47 51 54 49 43 42 41 41 39 36
21 18 15 10 13 2 12 13 12 10 11 15 12 10 12 12 13 13 12 17 19 21 23 26 28 30 32 34 37 40 45 42 44 48 50 52 41 44 45 41 39 36 35 33
19 18 14 9 18 5 14 16 12 13 13 12 13 14 10 8 10 11 12 14 17 20 22 24 28 32 34 36 38 42 44 46 45 48 51 50 45 45 43 42 36 33 33 31
18 17 18 14 6 8 11 13 15 16 16 13 9 9 10 10 12 12 12 14 17 19 23 27 30 34 35 39 44 47 47 48 51 51 50 47 43 41 40 39 34 33 33 33
19 18 18 17 14 7 9 11 14 15 15 7 7 7 7 8 10 12 13 16 19 23 27 30 32 37 41 45 48 50 51 52 52 49 45 39 41 42 38 39 32 31 33 33
17 13 14 16 14 10 14 17 22 16 13 12 13 11 10 11 12 13 16 20 24 29 33 37 41 43 45 47 47 46 45 46 46 44 44 45 41 42 36 38 32 30 34 33
11 13 12 12 10 10 8 20 21 21 17 11 9 8 9 12 15 18 21 25 29 35 36 39 42 39 39 43 45 46 45 44 43 41 42 42 42 36 33 35 33 32 33 29
13 14 15 14 12 10 10 15 15 12 9 8 10 11 12 13 17 21 26 31 34 31 29 30 31 35 39 40 36 38 33 37 38 38 38 38 36 32 30 32 31 31 24 22
13 12 13 13 14 14 12 12 12 12 11 11 12 13 16 21 27 31 30 29 28 28 30 32 34 35 34 30 27 29 32 35 34 34 33 31 30 29 31 32 30 31 26 27
13 14 14 14 14 12 11 10 9 10 11 13 15 19 24 29 28 25 23 25 27 28 31 31 26 28 28 25 29 28 27 26 25 22 26 27 29 29 28 32 23 22 22 21

GFSCGP_700_spd_141.txt.gz
Wind_Speed
15 15 15 9 7 5 4 7 10 10 10 13 14 14 10 8 8 10 11 10 8 8 9 9 9 9 8 7 8 9 8 8 5 4 3 2 3 5 7 8 8 8 11 12
16 15 12 10 6 6 4 3 6 11 7 5 11 13 12 11 10 10 11 12 11 10 10 10 7 7 8 7 7 9 11 9 7 6 5 5 6 8 9 9 9 9 12 15
15 14 12 9 5 7 6 6 7 10 12 7 7 15 16 13 15 14 14 17 15 11 11 8 8 7 6 7 5 3 9 10 6 5 7 9 9 9 11 12 12 12 13 16
15 14 12 9 7 9 6 7 8 7 8 5 13 13 19 16 18 18 18 17 17 15 13 10 6 6 7 8 7 5 8 5 3 3 5 5 9 10 10 13 16 16 19 22
11 15 14 9 8 8 6 7 5 5 6 8 13 10 14 19 22 22 24 16 18 17 16 13 11 11 10 8 12 15 14 13 12 9 6 6 8 9 13 17 19 20 24 23
14 14 13 12 10 7 4 3 9 9 7 6 9 14 12 21 21 21 25 21 19 18 17 16 16 16 16 17 16 10 7 8 7 7 10 11 11 14 16 19 22 23 25 27
17 15 15 15 12 10 7 3 3 4 4 1 6 6 9 7 17 21 23 23 21 20 19 17 16 13 11 9 7 9 7 3 3 2 2 5 11 14 17 20 24 28 30 31
15 14 16 15 16 11 10 5 2 3 2 1 5 5 4 8 9 17 18 25 25 20 19 18 13 17 11 7 7 11 12 10 12 10 8 10 17 20 16 17 21 26 30 32
19 13 19 17 18 16 11 10 6 2 2 2 2 4 7 7 7 12 17 24 27 21 18 19 13 17 16 12 10 16 18 16 13 15 16 16 21 26 27 30 30 26 27 30
11 14 16 19 17 17 16 14 4 3 2 3 1 4 5 6 3 2 12 21 25 20 17 14 14 15 18 15 15 20 19 17 16 13 15 18 23 25 29 31 31 31 31 32
15 11 15 16 12 18 17 14 8 6 4 3 3 1 2 6 3 2 6 15 23 19 15 15 15 14 16 18 20 19 19 17 16 16 19 20 25 28 35 36 39 41 39 39
28 9 13 16 15 17 16 16 15 9 6 9 6 11 9 5 4 4 8 13 20 19 20 20 17 17 19 21 21 16 18 21 21 22 22 24 28 33 36 37 41 45 45 43
28 14 10 7 12 15 17 18 17 15 13 13 8 9 13 15 12 10 10 14 17 24 24 24 21 22 23 23 21 20 22 22 23 24 26 29 35 38 39 42 46 45 47 48
19 22 23 19 23 20 24 23 20 16 12 11 15 18 17 14 12 13 14 16 25 26 25 25 25 27 27 24 23 23 24 25 26 29 32 36 39 41 48 47 47 49 49 48
26 23 26 25 26 25 25 25 19 18 14 10 12 15 11 15 18 19 19 21 25 29 28 26 29 29 27 27 25 25 27 28 31 34 38 40 44 51 51 49 48 47 46 46
26 19 25 22 20 18 23 21 17 14 14 14 13 18 16 13 14 17 17 16 16 18 23 26 25 26 27 24 26 27 28 31 36 39 41 47 52 50 50 50 47 44 45 44
23 22 23 13 21 19 13 20 17 13 12 9 9 11 15 18 22 22 19 19 20 22 25 24 25 21 23 26 28 29 32 37 41 44 49 51 52 54 54 54 52 50 50 44
22 23 22 13 17 7 10 14 13 13 10 7 15 16 14 9 11 12 13 16 16 20 20 19 21 24 25 28 32 36 40 44 46 49 51 50 53 56 54 50 48 45 44 42
24 24 14 10 14 7 7 14 13 10 11 12 15 15 13 9 5 6 5 5 8 12 16 19 22 26 31 34 38 42 44 46 49 51 51 52 54 53 48 45 43 45 44 43
23 22 21 13 8 9 13 10 10 13 15 19 12 10 6 4 5 6 6 9 12 14 18 23 26 29 33 37 40 43 47 50 53 52 50 49 51 49 44 44 45 44 43 42
23 22 19 18 7 7 10 9 13 15 13 9 6 8 5 6 9 9 11 13 17 21 24 25 29 34 39 42 46 47 48 45 47 49 51 45 43 41 42 42 43 44 40 39
23 20 17 17 12 9 12 16 21 18 17 13 9 10 11 12 13 14 15 16 18 21 24 29 36 40 42 43 39 38 40 47 40 39 38 35 36 38 40 41 41 38 37 36
18 21 19 18 16 12 13 17 20 21 21 16 11 11 13 15 15 14 15 19 23 26 31 36 38 35 32 33 37 38 34 36 39 39 39 38 36 36 38 38 33 33 34 35
21 21 16 14 19 20 17 17 19 22 20 17 15 16 16 14 14 16 19 25 30 33 33 31 29 30 32 31 28 29 29 34 34 29 29 31 33 34 33 30 31 33 35 30
18 16 16 18 14 15 16 15 15 16 15 15 14 12 12 14 17 23 27 24 24 26 27 26 27 26 25 25 26 25 25 29 30 29 29 29 31 31 31 31 33 36 33 29
11 10 12 12 9 13 14 17 15 13 11 11 12 14 17 20 24 24 21 20 22 25 26 27 27 27 25 25 25 24 25 28 30 29 34 31 28 30 31 30 25 25 28 22

GFSCGP_700_spd_144.txt.gz
Wind_Speed
14 11 13 12 10 4 6 9 11 9 8 7 6 5 6 6 10 11 10 7 4 7 8 8 8 8 9 10 11 12 11 9 7 6 5 4 5 5 6 6 7 8 9 8
12 16 14 13 11 7 7 10 12 10 11 8 6 7 8 8 11 12 12 12 9 7 8 8 8 8 8 8 8 9 10 9 8 6 6 5 6 7 8 8 9 10 10 11
14 13 17 15 9 9 9 10 10 9 13 8 6 9 10 10 11 15 16 16 15 11 9 8 8 9 8 7 5 5 9 8 5 5 5 5 6 8 9 13 12 12 15 15
15 12 17 12 11 11 10 8 6 12 14 15 12 10 12 12 13 16 19 21 20 16 13 9 7 7 9 9 6 6 8 7 5 4 2 1 3 5 9 11 12 16 20 22
12 17 16 14 12 10 5 8 7 8 12 7 10 12 10 13 13 16 21 22 23 20 17 11 9 9 10 12 15 14 13 12 8 5 1 1 3 5 8 11 13 16 17 18
9 18 15 13 12 12 9 8 7 8 10 13 9 11 13 13 15 15 18 22 24 25 21 18 14 14 14 16 16 11 10 7 5 4 3 4 7 8 10 13 16 18 20 22
16 17 14 15 13 12 11 11 11 10 10 5 6 9 15 5 16 17 15 22 23 25 25 24 20 14 10 13 12 10 7 5 3 4 3 4 7 9 11 13 16 18 21 19
21 22 20 17 18 14 14 11 6 6 5 8 7 7 8 13 14 12 18 20 23 25 26 25 23 20 12 12 13 15 13 13 10 9 10 9 12 14 14 13 16 18 21 23
23 16 20 16 18 14 12 14 4 3 2 8 6 5 10 10 11 12 14 21 26 25 24 22 20 23 20 15 13 16 18 20 17 14 14 16 18 17 18 19 23 26 27 27
14 20 16 20 19 21 11 14 9 9 3 5 8 6 2 3 4 2 7 18 24 28 24 21 24 21 26 22 20 18 20 23 23 18 19 19 22 22 22 23 26 29 30 33
16 18 16 17 21 19 17 16 14 1 5 4 3 7 1 1 2 4 6 10 21 30 26 23 26 25 22 25 23 24 22 23 23 22 24 23 27 29 28 28 31 34 37 40
25 15 17 22 18 21 16 19 17 12 12 5 6 1 2 1 3 3 5 11 16 24 24 25 26 25 20 22 24 27 26 22 24 27 27 29 32 32 33 34 38 41 45 49
30 18 16 12 12 18 19 18 16 12 8 8 10 3 0 7 10 9 9 9 13 23 25 26 26 24 23 24 26 27 26 26 27 29 29 31 32 34 37 40 44 47 49 53
27 24 26 23 21 21 19 19 19 18 16 11 14 12 6 7 12 12 13 14 17 23 28 30 29 28 28 27 27 27 26 28 29 31 31 32 34 39 43 47 49 52 54 55
24 30 23 21 11 16 19 18 20 21 18 14 7 8 8 8 13 16 18 19 21 22 28 33 32 31 31 28 27 25 26 31 31 33 34 36 41 45 49 51 53 55 56 58
25 21 21 21 20 21 22 22 22 20 18 18 14 11 9 14 14 17 19 19 21 24 28 33 33 30 28 26 25 30 30 30 32 35 38 42 47 49 52 55 58 60 60 55
27 24 20 23 15 18 22 23 23 20 17 15 14 10 11 11 17 19 22 20 19 19 19 19 23 24 27 29 27 25 28 30 35 39 43 46 49 53 57 60 62 60 53 51
27 25 19 16 13 15 15 17 20 18 14 13 12 9 13 14 13 11 10 15 21 22 20 18 18 18 18 20 24 27 31 36 41 45 50 53 56 59 61 61 57 54 52 47
18 20 15 13 23 6 9 18 26 20 14 13 9 12 14 9 5 7 7 7 8 9 9 10 12 15 19 24 28 33 38 44 49 52 53 52 50 50 49 50 52 49 45 43
22 23 19 16 20 18 11 15 17 14 13 13 12 12 10 6 3 9 8 8 8 9 11 14 18 23 27 32 36 40 45 49 48 48 44 43 50 46 44 43 42 42 40 38
20 21 24 17 17 8 10 13 16 13 8 8 9 10 10 8 12 12 11 12 14 17 20 22 25 29 34 38 41 46 47 42 39 43 41 40 43 39 41 43 42 41 38 38
26 21 20 19 20 15 13 16 13 12 14 15 10 11 14 13 14 16 17 18 19 20 22 25 30 34 38 41 45 42 38 39 38 33 32 31 31 30 33 36 37 36 36 37
20 22 20 19 18 17 14 17 14 14 16 15 17 15 17 19 19 19 17 18 18 22 26 30 37 40 40 37 34 36 35 31 30 27 30 34 32 32 35 35 34 33 34 34
30 27 17 20 18 17 17 16 18 17 20 22 19 19 20 22 20 18 19 19 23 27 34 34 29 29 29 30 32 32 31 28 26 27 31 35 35 39 32 32 33 35 37 36
19 26 24 22 16 16 19 22 20 19 21 20 19 20 19 18 18 18 20 24 30 31 27 26 26 28 29 30 29 28 26 27 27 31 35 34 34 29 29 29 30 30 30 34
23 20 19 14 20 15 15 16 16 17 16 17 17 17 16 16 18 23 27 29 27 25 24 27 28 28 27 27 25 25 27 29 31 32 32 30 30 31 30 27 23 23 29 21

GFSCGP_700_spd_147.txt.gz
Wind_Speed
13 12 15 15 11 5 3 6 9 9 8 8 11 12 11 12 12 13 13 13 12 12 12 8 8 8 9 10 9 9 9 8 7 5 4 4 4 4 5 6 8 7 8 9
12 17 14 10 9 6 7 8 10 8 7 8 9 9 12 13 13 14 14 14 12 12 14 11 9 8 7 7 8 8 8 7 6 5 4 5 5 6 6 9 11 10 10 10
16 15 15 14 13 12 11 11 13 9 9 9 6 13 14 15 14 14 15 15 14 14 15 10 7 8 8 5 4 6 8 7 6 5 6 7 8 8 9 12 11 13 15 16
18 10 16 17 16 14 18 12 3 9 9 19 14 15 18 18 17 18 17 18 17 17 16 9 8 8 8 7 6 6 7 8 7 6 5 4 5 9 9 18 9 12 15 17
20 16 18 20 16 13 8 5 8 12 15 17 10 14 22 18 16 17 19 20 19 19 17 14 8 8 8 9 9 8 8 8 7 6 5 4 4 4 5 8 10 12 14 17
13 15 18 18 15 13 10 7 8 9 15 17 12 11 20 20 17 16 19 22 22 22 21 18 14 11 12 12 13 11 11 10 8 5 3 3 2 5 6 7 11 9 7 10
20 16 19 16 17 15 12 13 12 9 11 10 13 9 11 2 3 9 11 20 22 24 23 22 20 16 13 16 15 12 10 9 6 4 4 3 4 7 8 9 10 12 10 11
25 22 24 22 20 16 17 20 16 4 11 14 9 10 11 7 6 6 12 13 21 24 24 24 22 20 12 12 12 10 8 8 9 7 8 12 12 14 14 13 10 13 16 17
23 24 23 20 22 19 16 19 13 9 7 6 12 7 10 8 8 9 11 16 20 22 25 24 24 22 20 17 14 15 14 15 16 19 15 13 17 20 20 21 23 24 25 26
12 19 24 21 20 21 12 15 11 10 5 6 9 4 3 5 3 4 8 12 17 22 23 24 23 24 21 20 20 19 19 20 23 24 23 20 22 24 25 28 30 32 33 35
22 20 24 23 26 22 22 14 18 16 10 6 6 11 9 5 3 3 4 7 14 20 21 23 21 23 23 20 20 22 23 24 24 25 27 26 25 28 31 33 36 40 40 40
29 17 22 26 22 24 22 21 20 19 11 13 12 15 10 8 3 2 4 7 9 14 19 22 20 21 22 22 22 24 21 21 25 24 25 25 28 32 36 38 40 41 44 46
29 28 23 22 16 22 25 20 23 20 13 8 11 10 8 4 2 1 4 5 8 12 16 21 19 19 27 21 20 19 22 21 25 27 26 28 32 37 40 41 43 44 47 51
31 28 27 28 22 23 25 26 22 21 17 18 19 10 9 7 3 2 3 9 9 12 15 17 19 30 28 21 26 27 29 22 30 28 30 30 36 40 40 42 44 48 52 57
31 35 29 26 22 22 24 25 22 24 21 19 4 10 4 6 3 6 7 14 16 18 17 18 23 29 25 28 31 31 30 32 29 32 37 37 37 39 42 45 49 54 57 60
30 27 30 28 28 16 16 23 23 23 21 19 20 14 6 11 3 4 8 13 19 22 14 15 27 32 30 31 32 33 30 31 33 36 35 36 39 43 47 51 55 59 62 59
29 31 26 32 26 22 27 24 22 21 21 21 19 17 8 5 5 9 12 11 16 22 23 22 21 24 29 32 33 32 32 32 31 33 36 40 44 48 52 58 61 57 55 56
31 29 25 27 24 23 24 26 26 24 21 18 15 8 9 11 17 21 17 8 8 16 23 20 20 22 20 21 21 23 25 29 32 35 40 44 50 56 57 54 52 51 55 50
30 32 31 27 33 17 13 16 20 20 21 18 15 12 7 13 17 12 12 11 10 12 14 13 14 15 17 18 21 24 29 33 37 43 47 52 57 51 49 48 47 46 46 46
22 26 32 27 27 22 26 22 21 18 20 20 17 13 10 8 7 14 12 12 11 11 10 11 13 16 19 22 26 31 36 41 45 48 52 52 45 44 38 34 34 36 38 42
26 26 30 28 28 19 12 15 15 20 11 19 16 13 11 9 14 16 12 13 15 14 14 16 19 23 26 30 34 39 44 48 50 52 43 42 35 32 36 36 35 39 39 40
27 30 30 30 29 15 19 18 17 15 12 13 11 11 14 17 18 19 19 17 18 18 19 21 24 28 33 37 41 47 49 44 37 38 36 34 32 32 37 40 38 34 38 39
34 32 33 15 24 17 13 15 21 18 14 11 10 12 16 16 20 20 20 22 21 22 23 26 28 33 37 44 42 37 36 35 35 35 32 30 31 34 37 34 32 36 36 37
27 27 18 20 8 16 17 14 14 14 14 13 13 17 15 16 19 23 24 23 24 25 26 30 33 38 39 35 35 37 36 36 33 31 30 31 34 35 31 29 29 32 31 32
26 29 17 13 17 18 15 17 16 14 15 17 14 15 19 20 22 22 21 21 25 27 30 36 38 35 32 33 34 35 32 30 29 30 32 33 35 32 30 25 28 31 28 32
13 19 23 20 23 14 21 18 17 17 18 20 20 20 22 22 19 21 21 24 28 32 36 37 36 33 35 33 31 30 29 29 31 31 32 31 31 30 27 26 29 27 28 31

GFSCGP_700_spd_150.txt.gz
Wind_Speed
12 12 16 14 12 11 10 10 10 10 10 7 24 17 15 17 15 15 14 14 15 15 14 7 9 9 8 8 7 6 6 6 6 6 6 5 3 3 4 3 8 11 6 8
15 17 14 11 11 6 8 5 13 9 6 11 21 17 15 15 18 17 16 15 15 15 16 8 8 9 6 6 6 5 5 5 6 6 5 5 5 2 6 10 15 24 5 12
18 14 13 14 8 8 9 10 11 11 8 10 9 15 18 14 14 17 16 15 15 16 17 11 8 6 6 5 5 5 7 7 7 6 6 6 7 7 12 14 14 12 5 23
18 14 17 12 13 12 14 9 4 10 14 16 13 14 22 18 18 21 18 19 18 18 18 12 7 7 7 5 6 5 6 9 8 7 5 5 5 6 11 14 14 10 11 14
21 18 13 16 15 15 13 2 5 10 11 15 19 12 27 22 21 21 19 22 18 22 20 18 9 7 9 9 5 5 6 7 7 6 5 5 4 5 6 11 12 7 8 12
19 16 15 18 16 15 13 6 7 10 14 19 17 13 26 24 26 21 22 24 21 24 21 21 14 12 11 10 9 8 8 8 8 6 4 3 1 2 2 4 5 9 5 12
21 22 18 16 19 17 14 11 12 11 11 14 22 12 14 6 18 11 22 26 24 25 24 24 23 16 15 14 13 12 12 10 9 7 5 4 5 5 6 9 12 11 12 14
24 22 20 21 23 20 18 18 18 4 6 13 12 7 4 13 8 13 16 15 23 25 28 29 27 24 17 17 17 14 12 11 9 8 8 8 10 13 15 18 18 18 20 21
24 26 22 22 20 19 17 22 22 21 20 11 16 13 7 7 5 7 6 11 18 26 27 30 29 28 22 20 18 15 10 12 11 11 13 17 16 16 17 22 22 25 31 31
22 19 22 21 21 24 22 14 18 14 11 8 11 15 11 15 8 7 4 10 15 20 23 29 31 32 32 25 25 23 20 18 20 20 21 23 23 21 20 22 24 29 34 37
28 22 20 28 29 25 24 20 17 18 14 10 4 10 16 15 10 6 4 7 9 17 26 22 30 30 32 30 29 24 27 25 25 24 23 26 26 26 24 26 27 31 36 39
31 23 24 27 24 23 22 23 18 21 13 15 7 15 12 9 6 7 4 5 10 13 14 14 19 29 32 34 27 30 35 20 19 24 27 33 39 18 19 26 31 35 41 42
30 32 24 25 27 23 27 25 24 19 18 18 14 15 14 13 8 8 7 3 5 14 8 15 28 39 36 39 34 17 21 25 24 34 28 11 28 25 27 39 42 36 40 44
31 32 31 25 25 26 28 27 28 26 25 22 16 18 18 14 10 9 5 2 4 8 10 16 21 34 25 25 22 24 30 32 21 32 22 26 21 25 31 36 30 35 41 47
33 32 33 33 26 25 23 27 28 25 25 26 8 4 17 18 15 9 4 6 9 8 13 18 22 24 21 19 21 17 30 30 31 33 35 34 29 31 31 32 36 42 48 55
29 29 30 33 29 27 26 28 25 29 28 22 20 7 23 20 23 12 11 13 10 10 21 16 32 34 33 26 16 20 29 32 29 30 34 36 33 30 35 40 45 50 56 61
25 32 28 31 30 28 31 21 28 24 22 23 22 14 21 18 14 11 7 11 13 11 17 22 30 34 33 21 27 30 31 31 30 29 29 32 34 39 44 48 52 57 57 52
31 31 30 30 25 24 30 21 22 19 21 21 17 17 21 20 15 15 15 15 15 18 22 27 34 30 27 22 18 20 21 20 21 26 31 36 41 46 51 55 58 53 48 44
28 33 30 26 29 25 31 25 24 25 23 20 20 17 15 14 18 18 18 18 18 20 18 18 19 20 19 18 17 18 20 24 29 33 38 44 49 54 56 52 45 42 40 42
32 31 30 26 26 21 27 24 21 21 20 15 17 14 15 22 12 13 18 15 14 13 13 14 15 15 15 16 18 23 27 32 37 43 48 52 53 45 40 39 37 37 40 42
20 21 37 33 24 28 11 7 23 24 22 24 20 19 14 13 16 22 20 15 12 12 13 16 18 18 20 21 25 31 35 39 44 49 44 39 39 38 36 35 33 37 39 35
25 23 25 28 28 28 16 16 23 24 16 16 16 18 21 23 18 19 21 18 15 15 16 19 21 24 28 28 32 37 41 45 44 41 41 39 36 33 33 34 37 38 37 33
37 37 32 12 25 26 24 25 19 16 20 18 16 19 23 19 17 17 20 19 18 17 19 22 24 27 33 34 37 43 44 40 38 38 36 33 31 33 33 35 36 34 31 31
41 35 31 26 12 20 19 19 22 14 18 17 22 22 18 19 18 18 20 21 23 23 22 23 26 29 36 39 43 44 39 37 37 35 32 31 32 33 34 33 32 30 29 32
30 32 19 15 27 30 26 25 25 27 24 25 21 15 17 19 19 22 20 22 21 19 22 27 30 33 39 42 41 38 33 33 33 32 32 32 32 32 32 30 27 25 26 31
16 31 22 29 32 18 26 28 28 28 20 16 17 17 18 20 22 24 19 16 19 22 26 31 35 37 39 34 33 32 31 31 32 32 32 30 31 31 30 28 23 20 24 24